STARLINK-1259 (45403 NORAD) Tracking and Keplerian Element Data

This shows tracking and keplerian element data for the satellite.

Feedback or suggestion? Click here.




ElementValue
Catalog45403
NameSTARLINK-1259
Epoch Orbit1790
Epoch Day190.25001157
Epoch Year2020
RAAN71.2532
Inclination52.9955
Eccentricity0.0001257
Argument of Perigee85.4832
Mean Anonmoly277.4515
Mean Motion15.11799425
Decay Rate-0.01048909
L11 45403U 20019AV 20190.25001157 -.01048909 00000-0 -65476-1 0 9993
L22 45403 52.9955 71.2532 0001257 85.4832 277.4515 15.11799425 17900

Live tracking and technical data element details for STARLINK-1259 (NORAD 45403). STARLINK-1259 can be tracked NOW for your location showing map with azimuth and elevation plus other details from your city location.

Track the satellite on the map from your city or location and see movement details for azimuth, elevation, latitude, longitude, range, height, and movement on the map or in text.







IsCatalogInMostPopularTable: catalog: 45403, numindb: 27
Update: records affected: 1



GetName: 45403 STARLINK-1259

Hit Count: updated at: Thu, 09 Jul 2020 01:16:41 GMT